Iridium Next SV170

operational
NORAD ID: 43930 Int'l Des: 2019-002 Owner: IRIDS Country: US Constellation: Iridium NEXT
LEOCIRCULARPOLAR

Iridium Next SV170について

説明を読み込み中...

リアルタイム位置

3D地球を読み込み中...

次回通過

高度履歴

Altitude vs Time

uPlot chart will show altitude changes over time

軌道要素

1 43930U 19002J 25350.94376386 .00000920 00000-0 14204-3 0 9997
2 43930 86.6085 69.7575 0002319 90.9246 269.2237 14.72247700372443
Epoch: Dec 16, 2025 • Age: 12 hours

現在のステータス

高度 659.1 km
速度 7.53 km/s
衛星直下点 -9.66°S, 0.11°W
打ち上げ日 Jan 11, 2019
運用期間 6.9 years
タイプ communications

技術仕様

分類 Payload
質量 860.00 kg
乾燥質量 700.00 kg
総質量 860.00 kg
長さ 3.10 m
直径 1.50 m
スパン 9.40 m
形状 Half Hex Prism+2 pan
製造者 NGISGA
バスタイプ EliteBus
フェーズステータス In Orbit
所有者/国 IRIDS/US

大規模コンステレーション

Loading constellations...